Regional Weather Roundup
Issued by NWS

Home | Current Version | Previous Version | Text Only | Print | Product List | Glossary Off
Versions: 1 2 3 4 5 6 7 8 9 10 11 12 13 14 15 16 17 18 19 20 21 22 23 24 25 26 27 28 29 30 31 32 33 34 35 36 37 38 39 40 41 42 43 44 45 46 47 48 49

000
ASUS45 KBOU 230507
RWRCO

WEATHER ROUNDUP FOR COLORADO
NATIONAL WEATHER SERVICE DENVER/BOULDER CO
1100 PM MDT SAT APR 22 2017

NOTE: "FAIR" INDICATES FEW OR NO CLOUDS BELOW 12000 FEET WITH NO
SIGNIFICANT WEATHER AND/OR OBSTRUCTIONS TO VISIBILITY.

COZ001>005-013-030-031-230600-
...NORTHWEST COLORADO...

CITY           SKY/WX    TMP DP  RH WIND       PRES   REMARKS
CRAIG          FAIR      37  28  70 VRB5      30.13S
HAYDEN         FAIR      41  21  45 E3        30.14F
MEEKER         FAIR      38  27  64 NE7       30.14S
MOUNT WERNER   NOT AVBL
STEAMBOAT SPGS FAIR      39  24  55 E7        30.15F
WALDEN           N/A     32  23  69 SE7       30.20F WCI  26
$$

COZ006>008-011-230600-
...WEST CENTRAL VALLEYS...

CITY           SKY/WX    TMP DP  RH WIND       PRES   REMARKS
GRAND JUNCTION FAIR      48  17  29 E5        30.09S
MONTROSE       FAIR      44  19  36 SE12      30.17R
EAGLE          FAIR      39  24  55 E5        30.20R
RIFLE          FAIR      45  26  47 S3        30.13S
DELTA          FAIR      51  19  29 E7        30.13S
NUCLA          FAIR      45  18  33 E3        30.18R
$$

COZ017>023-064>068-230600-
...SOUTHWEST COLORADO...

CITY           SKY/WX    TMP DP  RH WIND       PRES   REMARKS
DURANGO        FAIR      39  19  44 NE5       30.20R
CORTEZ         FAIR      40  23  50 NE5       30.18R
PAGOSA SPRINGS FAIR      37  21  51 CALM      30.25S
TELLURIDE      FAIR      41  19  42 CALM      30.30R
WOLF CREEK PAS FAIR      28  12  50 S18       30.42S WCI  16
$$

COZ009-010-012-014-032>034-037-058>063-230600-
...CENTRAL COLORADO...

CITY           SKY/WX    TMP DP  RH WIND       PRES   REMARKS
ASPEN          FAIR      33  20  58 SW7       30.20R WCI  27
BUENA VISTA    FAIR      36  26  68 E6        30.28F
COPPER MTN     FAIR      32  14  47 S14       30.33S WCI  22
BERTHOUD PASS  FAIR      21  10  63 W14G22    30.31F WCI   8
COTTONWOOD PAS FAIR      36  23  60 E5        30.31S
GUNNISON       FAIR      34  20  56 SE5       30.24R WCI  30
KREMMLING      FAIR      37  28  70 CALM      30.20F
LEADVILLE      FAIR      27  21  78 CALM      30.28S
MONARCH PASS   FAIR      30  16  55 S15       30.46F WCI  19
SALIDA         FAIR      40  28  62 S5        30.35S
SUNLIGHT       FAIR      28  19  69 SW15G23   30.32F WCI  17
WILKERSON PASS FAIR      27  21  80 SW5       30.35F WCI  21
$$

COZ069>075-230600-
...SAN LUIS VALLEY/SANGRE DE CRISTO MOUNTAINS...

CITY           SKY/WX    TMP DP  RH WIND       PRES   REMARKS
ALAMOSA        FAIR      38  26  62 SE9       30.23S
LA VETA PASS   FAIR      28  23  80 NE3       30.44S
SAGUACHE       FAIR      36  19  51 NE6       30.26S
$$

COZ035-036-038>040-230600-
...NORTHERN COLORADO FRONT RANGE...

CITY           SKY/WX    TMP DP  RH WIND       PRES   REMARKS
DENVER INTL AP FAIR      39  32  76 S13       30.17F
DMNS CITY PARK   N/A     48  32  54 SE10G17   30.17F
AURORA         CLEAR     44  33  65 S18       30.18F
FRONT RANGE AP NOT AVBL
ERIE MUNI ARPT FAIR      43  32  64 CALM      30.16F
BOULDER MUN AP FAIR      45  32  61 S3        30.16F
CENTENNIAL     FAIR      44  34  67 S17G24    30.19F
BROOMFIELD     NOT AVBL
FORT COLLINS   FAIR      43  33  68 SE5       30.16F
LONGMONT       FAIR      43  34  71 SW5       30.18F
$$

COZ041-046-047-076>085-087-088-230600-
...PIKES PEAK/PALMER DIVIDE AND SOUTHERN FOOTHILLS...

CITY           SKY/WX    TMP DP  RH WIND       PRES   REMARKS
COLO. SPRINGS  FAIR      40  33  76 S13       30.27F
A. F. ACADEMY  FAIR      39  32  74 SE9       30.25F
SCHRIEVER AFB  FAIR      37  32  82 S9        30.27F
ELLICOTT       FAIR       1  32 100 S7        30.26F WCI -12
FALCON         FAIR      36  31  81 S10       30.28F
FORT CARSON    FAIR      42  32  69 S8        30.26F
LIMON          FAIR      39  34  82 S10       30.24F
MONUMENT HILL  FAIR      34  30  86 S15       30.25F WCI  24
TRINIDAD       FAIR      38  31  76 W8        30.28F
$$

COZ042>045-048>051-090-091-230600-
...NORTHEAST COLORADO...

CITY           SKY/WX    TMP DP  RH WIND       PRES   REMARKS
GREELEY ARPT   FAIR      45  33  63 SE10      30.17
AKRON          FAIR      43  29  57 S14       30.20F
BURLINGTON     NOT AVBL
WRAY           NOT AVBL
STERLING       FAIR      39  34  81 S5        30.18F
HOLYOKE        FAIR      43  36  75 S10       30.21F
FORT MORGAN    FAIR      40  31  70 S7        30.20F
$$

COZ086-089-092>099-230600-
...SOUTHEAST COLORADO...

CITY           SKY/WX    TMP DP  RH WIND       PRES   REMARKS
PUEBLO         FAIR      47  34  60 SE3       30.25F
LA JUNTA       FAIR      46  35  65 S6        30.26F
LAMAR          FAIR      38  34  85 SW8       30.26S
SPRINGFIELD      N/A     30  27  88 SW5       30.29S WCI  25
$$



USA.gov is the U.S. government's official web portal to all federal, state and local government web resources and services.